Weather History for Ciudad del Este, Paraguay

Change the Weather History Date:

Friday, October 5, 2012

  Actual Average Record
Temperature  
Mean Temperature 76 °F -  
Max Temperature 90 °F 82 °F 95 °F (2007)
Min Temperature 62 °F 62 °F 48 °F (2013)
Cooling Degree Days 11    
Growing Degree Days 26 (Base 50)    
Moisture  
Dew Point 67 °F    
Average Humidity 75    
Maximum Humidity 100    
Minimum Humidity 42    
Precipitation  
Precipitation 0.00 in - - ()
Sea Level Pressure  
Sea Level Pressure 29.86 in    
Wind  
Wind Speed 5 mph ()    
Max Wind Speed 17 mph    
Max Gust Speed -    
Visibility 5.7 miles    
Events Fog    
Averages and records for this station are not official NWS values.
T = Trace of Precipitation, MM = Missing Value Source: Averaged Metar Reports

Daily Weather History Graph

Daily Weather History Graph

Search for Another Location

Airport:

Trip Planner

Search our weather history database for the weather conditions in past years. The results will help you decide how hot, cold, wet, or windy it might be!

Date:

Astronomy

Oct. 05, 2012 Rise Set
Actual Time 5:14 AM PYT 5:41 PM PYT
Civil Twilight 4:51 AM PYT 6:04 PM PYT
Nautical Twilight 4:24 AM PYT 6:31 PM PYT
Astronomical Twilight 3:57 AM PYT 6:58 PM PYT
Moon 10:34 PM PYT (10/5) 8:42 AM PYT (10/5)
Length of Visible Light 13h 12m
Length of Day
12h 26m
Waning Gibbous, 74% of the Moon is Illuminated
Oct 5
Waning Gibbous
Oct 8
Last Quarter
Oct 15
New
Oct 22
First Quarter
Oct 29
Full

Hourly Weather History & Observations

Time (PYT) Temp. Heat Index Dew Point Humidity Pressure Visibility Wind Dir Wind Speed Gust Speed Precip Events Conditions
12:00 AM 66.2 °F - 64.4 °F 94% 29.92 in - Calm Calm - N/A   Clear
1:00 AM 66.2 °F - 64.4 °F 94% 29.89 in - Calm Calm - N/A   Clear
2:00 AM 63 °F - 60 °F 87% 29.92 in 12 mi Calm Calm - -  
2:00 AM 62.6 °F - 60.8 °F 94% 29.92 in - Calm Calm - N/A   Clear
3:00 AM 62.6 °F - 60.8 °F 94% 29.92 in - Calm Calm - N/A   Clear
4:00 AM 62.6 °F - 60.8 °F 94% 29.92 in - Calm Calm - N/A   Clear
5:00 AM 63 °F - 62 °F 96% 29.89 in 6 mi Calm Calm - -   Mist
5:00 AM 62.6 °F - 62.6 °F 100% 29.89 in 5.6 mi Calm Calm - N/A   Unknown
5:10 AM 62.6 °F - 62.6 °F 100% 29.89 in 0.6 mi Calm Calm - N/A Fog Fog
5:25 AM 62.6 °F - 62.6 °F 100% 29.89 in 0.2 mi Calm Calm - N/A Fog Fog
5:35 AM 62.6 °F - 62.6 °F 100% 29.89 in 0.0 mi Calm Calm - N/A Fog Fog
6:00 AM 64.4 °F - 64.4 °F 100% 29.92 in 0.0 mi Calm Calm - N/A Fog Fog
6:45 AM 66.2 °F - 66.2 °F 100% 29.92 in 0.0 mi East 5.8 mph - N/A Fog Fog
7:00 AM 68.0 °F - 68.0 °F 100% 29.92 in 0.2 mi East 10.4 mph - N/A Fog Fog
7:30 AM 71.6 °F - 68.0 °F 88% 29.92 in 3.7 mi East 9.2 mph - N/A   Unknown
8:00 AM 74 °F - 70 °F 84% 29.92 in 5 mi East 10.4 mph - -   Mist
8:00 AM 73.4 °F - 69.8 °F 88% 29.92 in 5.0 mi East 10.4 mph - N/A   Unknown
9:00 AM 78.8 °F - 66.2 °F 65% 29.89 in - ENE 9.2 mph - N/A   Clear
9:30 AM 80.6 °F 82.7 °F 66.2 °F 61% 29.89 in - East 9.2 mph - N/A   Clear
10:00 AM 84.2 °F 87.3 °F 68.0 °F 58% 29.89 in - East 13.8 mph - N/A   Clear
11:00 AM 87 °F - 69 °F 46% 29.87 in 12 mi NE 17.3 mph - -   Partly Cloudy
11:00 AM 86.0 °F 90.4 °F 69.8 °F 58% 29.86 in 6.2 mi ENE 17.3 mph - N/A   Scattered Clouds
12:00 PM 87.8 °F 92.6 °F 69.8 °F 55% 29.83 in 6.2 mi East 13.8 mph - N/A   Mostly Cloudy
1:00 PM 87.8 °F 92.6 °F 69.8 °F 55% 29.80 in 6.2 mi East 13.8 mph - N/A   Partly Cloudy
2:00 PM 89 °F - 69 °F 42% 29.79 in 12 mi ESE 16.1 mph - -   Mostly Cloudy
2:00 PM 87.8 °F 92.6 °F 69.8 °F 55% 29.77 in 6.2 mi ESE 16.1 mph - N/A   Partly Cloudy
3:00 PM 89.6 °F 94.7 °F 69.8 °F 52% 29.77 in 6.2 mi NE 13.8 mph - N/A   Partly Cloudy
4:00 PM 89.6 °F 93.4 °F 68.0 °F 49% 29.74 in 6.2 mi NE 15.0 mph - N/A   Partly Cloudy
5:00 PM 88 °F - 69 °F 44% 29.76 in 12 mi NE 13.8 mph - -   Mostly Cloudy
5:00 PM 87.8 °F 92.6 °F 69.8 °F 55% 29.74 in 6.2 mi NE 13.8 mph - N/A   Mostly Cloudy
6:00 PM 84.2 °F 87.3 °F 68.0 °F 58% 29.77 in 6.2 mi ENE 10.4 mph - N/A   Partly Cloudy
7:00 PM 80.6 °F 83.2 °F 68.0 °F 65% 29.77 in - ENE 8.1 mph - N/A   Clear
8:00 PM 80 °F - 68 °F 58% 29.81 in 12 mi NE 6.9 mph - -  
8:00 PM 78.8 °F - 68.0 °F 69% 29.80 in - NE 6.9 mph - N/A   Clear
9:00 PM 77.0 °F - 68.0 °F 74% 29.83 in - ENE 9.2 mph - N/A   Clear
10:00 PM 75.2 °F - 69.8 °F 83% 29.83 in - ENE 9.2 mph - N/A   Clear
11:00 PM 75.2 °F - 68.0 °F 78% 29.83 in - East 11.5 mph - N/A   Clear